www.pogodaiklimat.ru

Погода и климат >> Архив погоды >> Гондурас >> Amapala


ПОГОДА в Amapala

  • Прогноз погоды в Amapala
  • Монитор погоды в Amapala
  • Климат города

АРХИВ ПОГОДЫ в Amapala

Время (UTC), дата Ветер
(напр.,м/с)
 
Видим.   Явления Облачность Т
(С)
Тd
(С)
f
(%)
Тe
(С)
Тes
(С)
Комфортность P
(гПа)
Po
(гПа)
Тmin
(С)
Tmax
(С)
R
(мм)
R24
(мм)
S
(см)
21 20.06 ЮЗ 3 20 км 9/1 900 м
[Cu hum Cs]
+29.8 +24.4 73 +42 +48 опасность
перегрева
1009.7 1009.2
00 21.06 ЮЗ 2 20 км 9/1 750 м
[Sc Ac As]
+27.8 +25.7 88 +41 +41 опасность
перегрева
1009.8 1009.3 +23.4 +30.4
12 21.06 штиль 0 20 км 9/0
[Ac lent Cs]
+25.2 +24.7 97 +35 +36 очень
душно
1012.3 1011.8 +24.5 +30.4
15 21.06 штиль 0 20 км 9/1 750 м
[Cu hum Ac As]
+27.8 +25.9 89 +41 +47 опасность
перегрева
1013.2 1012.7
18 21.06 Ю 1 20 км 9/1 750 м
[Cu hum Ac As]
+30.0 +26.0 79 +45 +53 опасность
перегрева
1011.8 1011.3 +24.5 +30.0
21 21.06 ЮЗ 2 20 км 9/1 900 м
[Cu hum Ac trans Cs]
+31.2 +26.2 75 +47 +52 опасность
перегрева
1010.7 1010.2
00 22.06 ЮЗ 3 20 км 9/1 960 м
[Cb cap Ac As Ci fib]
+29.0 +26.4 86 +44 +44 опасность
перегрева
1010.9 1010.4 +24.5 +31.5
12 22.06 С 2 20 км 8/1 840 м
[Cu hum Ac As]
+25.0 +23.6 92 +34 +34 очень
душно
1011.8 1011.3 +24.4 +31.5 37
15 22.06 СВ 2 20 км 9/1 840 м
[Cu hum Ac trans Cs]
+28.0 +23.6 77 +38 +44 очень
душно
1013.2 1012.7
18 22.06 ЮЗ 2 20 км 9/1 900 м
[Cu hum Ac As Ci fib]
+30.0 +24.0 70 +41 +52 опасность
перегрева
1012.8 1012.3 +24.4 +30.0
21 22.06 В 3 20 км 9/1 840 м
[Cu hum Ac As]
+27.8 +25.4 87 +41 +44 опасность
перегрева
1011.8 1011.3
00 23.06 Ю 1 20 км 9/1 600 м
[Sc Ac As]
+27.0 +24.6 87 +38 +38 очень
душно
1011.5 1011.0 +24.4 +30.2
12 23.06 штиль 0 20 км 9/0
[Ac As Ci fib]
+24.2 +23.6 96 +33 +33 очень
душно
1013.1 1012.6 +24.0 +30.2
15 23.06 СВ 1 20 км 9/1 750 м
[Cu hum Cs]
+28.8 +24.5 78 +41 +52 опасность
перегрева
1014.0 1013.5
18 23.06 штиль 0 20 км 9/1 900 м
[Cu hum Cs]
+30.4 +25.3 74 +44 +66 опасность
перегрева
1012.8 1012.3 +24.0 +30.4
21 23.06 ЮЗ 2 20 км 9/1 900 м
[Cu hum Cs]
+31.8 +26.0 71 +47 +55 опасность
перегрева
1011.6 1011.1
00 24.06 штиль 0 20 км 9/0
[Cs]
+31.0 +25.7 73 +46 +46 опасность
перегрева
1011.7 1012.2 +24.0 +33.6
15 24.06 СВ 3 20 км 5/1 900 м
[Cu hum Ci]
+29.6 +24.5 74 +42 +50 опасность
перегрева
1015.1 1014.6
18 24.06 ЮЗ 2 20 км 4/1 900 м
[Cu hum Ci fib]
+32.4 +23.7 60 +44 +62 опасность
перегрева
1013.5 1013.0 +24.4 +32.4
21 24.06 ЮЗ 3 20 км 3/1 900 м
[Cu hum Ci fib]
+32.4 +24.3 62 +45 +52 опасность
перегрева
1011.9 1011.4
00 25.06 ЮЗ 2 20 км 8/1 900 м
[Cu med, cong Cs]
+29.8 +25.4 77 +44 +44 опасность
перегрева
1011.4 1010.9 +24.4 +33.4
12 25.06 штиль 0 20 км 8/0
[Ac As Ci fib]
+26.6 +25.8 95 +39 +39 очень
душно
1014.9 1014.4 +26.0 +33.4
15 25.06 С 2 20 км 9/0
[Ac lent Cs]
+29.2 +26.6 86 +45 +55 опасность
перегрева
1014.9 1014.4
18 25.06 ЮЗ 1 20 км 9/1 900 м
[Cu hum Cs]
+32.4 +25.8 68 +48 +66 опасность
перегрева
1014.7 1014.2 +26.0 +32.4
21 25.06 ЮЗ 4 20 км 8/1 900 м
[Cu hum Ac trans Ci fib]
+35.0 +27.2 64 +53 +57 опасность
перегрева
1012.6 1012.1
00 26.06 штиль 0 20 км 4/1 960 м
[Cu hum Cs]
+31.8 +27.4 78 +51 +51 опасность
перегрева
1011.5 1011.0 +26.0 +35.0
12 26.06 С 2 20 км 9/1 840 м
[Cu hum Ac trans Cs]
+26.2 +24.8 92 +37 +37 очень
душно
1014.2 1013.7 +25.6 +35.0 3
15 26.06 СВ 2 20 км 9/1 840 м
[Cu hum Cs]
+30.4 +24.2 70 +42 +52 опасность
перегрева
1014.9 1014.4
18 26.06 В 2 20 км 9/1 900 м
[Cu hum Ac trans Cs]
+33.0 +23.5 58 +44 +55 опасность
перегрева
1014.0 1013.5 +25.6 +33.0
21 26.06 ЮЗ 2 20 км 9/1 900 м
[Cu hum Ac trans Cs]
+32.8 +24.2 61 1011.6
00 27.06 ЮЗ 2 20 км 9/9 900 м
[]
+30.6 +25.0 72 +44 +44 опасность
перегрева
1011.5 1011.0 +25.6 +33.8
15 27.06 штиль 0 20 км 6/1 600 м
[Cu hum Ac trans Ci fib]
+31.2 +25.9 73 +46 +57 опасность
перегрева
1014.2
18 27.06 штиль 0 20 км 4/1 750 м
[Cu hum Ac trans Ci fib]
+32.8 +25.3 65 +47 +69 опасность
перегрева
1014.4 1013.9 +26.0 +32.8

 

Местоположение метеостанции Amapala (Гондурас): широта 13.27 долгота -87.65 высота над уровнем моря 5 м.

В архиве по умолчанию представлена погода в Amapala за последнюю неделю. Архивные данные за месяц целиком и за предыдущие месяцы, начиная с января 2011 года, Вы можете получить, выбрав интересующий диапазон дат из раскрывающегося списка и нажав кнопку "Ввод!".

Внимание! Время в таблицах - всемирное. Для получения местного времени необходимо прибавить поправку, которая в Amapala равна -6 ч.

Смотрите также архив погоды в соседних городах и на ближайших метеорологических станциях:

Погода в Choluteca (Гондурас) (51 км)
Погода в Chinandega (Никарагуа) (91 км)
Погода в Tegucigalpa (Гондурас) (99 км)
Погода в La Esperanza (Гондурас) (129 км)
Погода в Jinotega (Никарагуа) (182 км)
Погода в Managua (Никарагуа) (203 км)
Погода в Santa Rosa De Copan (Гондурас) (208 км)
Погода в Nueva Ocotepeque (Гондурас) (210 км)
Погода в Yoro (Гондурас) (219 км)
Погода в La Mesa (Гондурас) (244 км)

Пояснения к столбцам:

Ветер - указаны скорость ветра в м/с - средняя за 10 мин, порывы в срок и между сроками (в фигурных скобках) и направление, откуда дует ветер: С - северный, СВ - северо-восточный, В - восточный, ЮВ - юго-восточный, Ю - южный, ЮЗ - юго-западный, З - западный, СЗ - северо-западный.
Видимость - горизонтальная дальность видимости в метрах или километрах. При видимости от 1 до 10 км при отсутствии осадков обычно наблюдается дымка, при ухудшении видимости до 1 км и менее - туман. В сухую погоду видимость может ухудшаться дымом, пылью или мглою.
Явления - указаны атмосферные явления, наблюдавшиеся в срок или в последний час перед сроком; фигурными скобками обозначены явления, наблюдавшиеся между сроками (за 1-3 часа до срока); квадратными скобками обозначены град или гололедные отложения с указанием их диаметра в мм.
Облачность - указаны через наклонную черту общая и нижняя облачность в баллах и высота нижней границы облаков в метрах; квадратными скобками обозначены формы облаков: Ci - перистые, Cs - перисто-слоистые, Cc - перисто-кучевые, Ac - высококучевые, As - высокослоистые, Sc - слоисто-кучевые, Ns - слоисто-дождевые, Cu - кучевые, Cb - кучево-дождевые. Подробнее классификацию облаков см. в Атласе облаков (PDF).
T - Температура воздуха - температура, измеренная на высоте 2 м над землей.
Td - Температура точки росы - температура, при понижении до которой содержащийся в воздухе водяной пар достигнет насыщения.
f - Относительная влажность воздуха - влажноcть воздуха, измеренная на высоте 2 м над землей.
Te - Эффективная температура - температура, которую ощущает одетый по сезону человек в тени. Характеристика душности погоды. При расчете учитывается влияние влажности воздуха и скорости ветра на теплоощущения человека.
Tes - Эффективная температура на солнце - температура, которую ощущает человек, с поправкой на солнечный нагрев. Характеристика знойности погоды. Зависит от высоты солнца над горизонтом, облачности и скорости ветра. Ночью, в пасмурную погоду, а также при ветре 12 м/с и более поправка равна нулю.
P - Атмосферное давление - приведенное к уровню моря атмосферное давление.
Po - Атмосферное давление - измеренное на уровне метеостанции атмосферное давление.
Tmin - Минимальная температура - минимум температуры воздуха на высоте 2 м над землей.
Tmax - Максимальная температура - максимум температуры воздуха на высоте 2 м над землей.
R - Количество осадков - Количество выпавших осадков за период времени, мм. При наведении курсора мыши на число - период времени, за который выпало указанное количество осадков.
R24 - Количество осадков - Количество выпавших осадков за 24 часа, мм.
S - Снежный покров - Высота снежного покрова, см. При наведении курсора мыши на число - состояние снежного покрова и степень покрытия местности в баллах.